Find Starlink 34967

NORAD ID: 65177 Int'l Des: 2025-175 Owner: SPXS Country: US Constellation: starlink operational
LEOCIRCULARRETROGRADESSO

当前视图

正在加载3D地球...

About Starlink 34967

Starlink 34967 (NORAD 65177) is a starlink constellation satellite (v2 mini) launched Aug 14, 2025 by SPXS of US. It operates in LEO, CIRCULAR, RETROGRADE, SSO orbit with a mass of 575.00 kg.

即将过境

Passes for default location (London). Set your location on the main map for personalized predictions.

高度历史

Loading altitude history...

两行轨道根数

1 65177U 25175D 26258.60098082 .00021033 00000-0 65175-3 0 9998
2 65177 97.2828 127.6726 0001962 91.3515 268.7952 15.33457145 61382
Epoch: Sep 15, 2026 • Age: 6 hours

当前状态

高度 469.6 km
远地点 / 近地点 N/A
速度 7.63 km/s
星下点 -5.67°S, 176.12°W
发射日期 Aug 14, 2025
运行时间 1 year
类型 internet

技术详情

分类 Payload
质量 575.00 kg
干质量 530.00 kg
长度 0.30 m
跨度 29.00 m
形状 ? Box + pan
制造商 SPXS
平台类型 Starlink V2MO
阶段状态 In Orbit
所有者/国家 SPXS/US

Most Searched